TimeCDT,TemperatureF,Dew PointF,Humidity,Sea Level PressureIn,VisibilityMPH,Wind Direction,Wind SpeedMPH,Gust SpeedMPH,PrecipitationIn,Events,Conditions,WindDirDegrees,DateUTC
12:15 AM,57.7,57.7,100,30.03,7.0,Calm,Calm,-,N/A,,Clear,0,2013-10-09 05:15:00
12:35 AM,58.3,58.3,100,30.03,1.2,Calm,Calm,-,N/A,,Mist,0,2013-10-09 05:35:00
12:55 AM,56.5,56.5,100,30.03,5.0,Calm,Calm,-,N/A,,Clear,0,2013-10-09 05:55:00
1:15 AM,56.5,56.5,100,30.03,0.8,Calm,Calm,-,N/A,,Mist,0,2013-10-09 06:15:00
1:35 AM,57.4,57.4,100,30.03,1.8,Calm,Calm,-,N/A,,Mist,0,2013-10-09 06:35:00
1:55 AM,56.8,56.8,100,30.03,10.0,Calm,Calm,-,N/A,,Clear,0,2013-10-09 06:55:00
2:15 AM,56.5,56.5,100,30.03,10.0,Calm,Calm,-,N/A,,Clear,0,2013-10-09 07:15:00
2:35 AM,56.7,56.7,100,30.03,7.0,Calm,Calm,-,N/A,,Clear,0,2013-10-09 07:35:00
2:55 AM,56.3,56.3,100,30.03,7.0,Calm,Calm,-,N/A,,Clear,0,2013-10-09 07:55:00
3:15 AM,56.3,56.3,100,30.03,10.0,Calm,Calm,-,N/A,,Clear,0,2013-10-09 08:15:00
3:35 AM,55.6,55.6,100,30.03,10.0,Calm,Calm,-,N/A,,Clear,0,2013-10-09 08:35:00
3:55 AM,54.5,54.5,100,30.03,0.5,Calm,Calm,-,N/A,Fog,Fog,0,2013-10-09 08:55:00
4:15 AM,54.7,54.7,100,30.02,2.5,Calm,Calm,-,N/A,,Clear,0,2013-10-09 09:15:00
4:35 AM,54.3,54.3,100,30.03,3.0,Calm,Calm,-,N/A,,Clear,0,2013-10-09 09:35:00
4:55 AM,54.1,54.1,100,30.03,0.2,Calm,Calm,-,N/A,Fog,Fog,0,2013-10-09 09:55:00
5:15 AM,54.0,54.0,100,30.03,1.0,Calm,Calm,-,N/A,,Mist,0,2013-10-09 10:15:00
5:35 AM,54.3,54.3,100,30.03,0.5,Calm,Calm,-,N/A,Fog,Fog,0,2013-10-09 10:35:00
5:55 AM,53.8,53.8,100,30.04,2.5,Calm,Calm,-,N/A,,Clear,0,2013-10-09 10:55:00
6:15 AM,53.8,53.8,100,30.04,7.0,Calm,Calm,-,N/A,,Clear,0,2013-10-09 11:15:00
6:35 AM,53.6,53.6,100,30.04,1.2,Calm,Calm,-,N/A,,Mist,0,2013-10-09 11:35:00
6:55 AM,53.6,53.6,100,30.05,0.5,Calm,Calm,-,N/A,Fog,Fog,0,2013-10-09 11:55:00
7:15 AM,53.4,53.4,100,30.05,0.2,Calm,Calm,-,N/A,Fog,Fog,0,2013-10-09 12:15:00
7:35 AM,54.0,54.0,100,30.06,1.8,Calm,Calm,-,N/A,,Mist,0,2013-10-09 12:35:00
7:55 AM,55.6,55.6,100,30.06,5.0,Calm,Calm,-,N/A,,Clear,0,2013-10-09 12:55:00
8:15 AM,58.6,58.6,100,30.07,10.0,Calm,Calm,-,N/A,,Clear,0,2013-10-09 13:15:00
8:35 AM,60.4,60.4,100,30.08,10.0,Calm,Calm,-,N/A,,Clear,0,2013-10-09 13:35:00
8:55 AM,62.2,62.2,100,30.08,10.0,Calm,Calm,-,N/A,,Clear,0,2013-10-09 13:55:00
9:15 AM,63.9,63.9,100,30.08,10.0,Calm,Calm,-,N/A,,Clear,0,2013-10-09 14:15:00
9:35 AM,67.1,61.3,82,30.09,10.0,Calm,Calm,-,N/A,,Clear,0,2013-10-09 14:35:00
9:55 AM,70.7,58.8,66,30.09,10.0,Calm,Calm,-,N/A,,Clear,0,2013-10-09 14:55:00
10:15 AM,73.4,56.5,55,30.10,10.0,Calm,Calm,-,N/A,,Clear,0,2013-10-09 15:15:00
10:35 AM,75.2,55.2,50,30.10,10.0,Calm,Calm,-,N/A,,Clear,0,2013-10-09 15:35:00
10:55 AM,77.2,51.4,41,30.10,10.0,Calm,Calm,-,N/A,,Clear,0,2013-10-09 15:55:00
11:15 AM,77.4,48.6,36,30.10,10.0,Calm,Calm,-,N/A,,Clear,0,2013-10-09 16:15:00
11:35 AM,78.4,48.7,35,30.10,10.0,South,3.5,-,N/A,,Clear,170,2013-10-09 16:35:00
11:55 AM,79.2,48.9,35,30.10,10.0,Calm,Calm,-,N/A,,Clear,0,2013-10-09 16:55:00
12:15 PM,79.7,44.8,29,30.09,10.0,Calm,Calm,-,N/A,,Clear,0,2013-10-09 17:15:00
12:35 PM,80.6,43.2,27,30.08,10.0,Calm,Calm,-,N/A,,Clear,0,2013-10-09 17:35:00
12:55 PM,80.8,43.7,27,30.08,10.0,Calm,Calm,-,N/A,,Clear,0,2013-10-09 17:55:00
1:15 PM,81.5,43.5,26,30.07,10.0,Calm,Calm,-,N/A,,Clear,0,2013-10-09 18:15:00
1:35 PM,82.0,43.7,26,30.06,10.0,Calm,Calm,-,N/A,,Clear,0,2013-10-09 18:35:00
1:55 PM,81.9,44.1,26,30.05,10.0,West,4.6,-,N/A,,Clear,270,2013-10-09 18:55:00
2:15 PM,82.8,45.0,26,30.04,10.0,WNW,3.5,-,N/A,,Clear,300,2013-10-09 19:15:00
2:35 PM,83.3,40.5,22,30.04,10.0,Calm,Calm,-,N/A,,Clear,0,2013-10-09 19:35:00
2:55 PM,83.1,41.7,23,30.03,10.0,Calm,Calm,-,N/A,,Clear,0,2013-10-09 19:55:00
3:15 PM,83.3,41.4,23,30.03,10.0,North,3.5,-,N/A,,Clear,10,2013-10-09 20:15:00
3:55 PM,84.2,39.9,21,30.03,10.0,Calm,Calm,-,N/A,,Clear,0,2013-10-09 20:55:00
4:15 PM,83.5,40.8,22,30.03,10.0,Calm,Calm,-,N/A,,Clear,0,2013-10-09 21:15:00
4:35 PM,83.3,40.1,22,30.02,10.0,Calm,Calm,-,N/A,,Clear,0,2013-10-09 21:35:00
4:55 PM,83.5,39.6,21,30.02,10.0,ESE,3.5,-,N/A,,Clear,110,2013-10-09 21:55:00
5:15 PM,83.3,39.9,21,30.02,10.0,Calm,Calm,-,N/A,,Clear,0,2013-10-09 22:15:00
5:35 PM,82.2,39.9,22,30.02,10.0,Calm,Calm,-,N/A,,Clear,0,2013-10-09 22:35:00
5:55 PM,81.5,45.0,28,30.02,10.0,Calm,Calm,-,N/A,,Clear,0,2013-10-09 22:55:00
6:15 PM,79.5,48.4,33,30.02,10.0,Calm,Calm,-,N/A,,Clear,0,2013-10-09 23:15:00
6:55 PM,74.3,52.5,46,30.03,10.0,ENE,3.5,-,N/A,,Clear,60,2013-10-09 23:55:00
7:15 PM,70.7,54.5,56,30.03,10.0,SSE,3.5,-,N/A,,Clear,150,2013-10-10 00:15:00
7:35 PM,69.1,54.7,60,30.04,10.0,SE,3.5,-,N/A,,Clear,130,2013-10-10 00:35:00
7:55 PM,68.4,53.8,60,30.04,10.0,Calm,Calm,-,N/A,,Clear,0,2013-10-10 00:55:00
8:15 PM,68.2,53.8,60,30.05,10.0,SSE,3.5,-,N/A,,Clear,160,2013-10-10 01:15:00
8:35 PM,68.0,54.7,62,30.05,10.0,Calm,Calm,-,N/A,,Clear,0,2013-10-10 01:35:00
8:55 PM,66.2,55.9,69,30.05,10.0,Calm,Calm,-,N/A,,Clear,0,2013-10-10 01:55:00
9:15 PM,64.6,57.9,79,30.06,10.0,Calm,Calm,-,N/A,,Clear,0,2013-10-10 02:15:00
9:35 PM,64.9,60.6,86,30.05,10.0,Calm,Calm,-,N/A,,Clear,0,2013-10-10 02:35:00
9:55 PM,63.3,61.9,95,30.06,10.0,Calm,Calm,-,N/A,,Clear,0,2013-10-10 02:55:00
10:15 PM,62.4,62.2,99,30.06,10.0,Calm,Calm,-,N/A,,Clear,0,2013-10-10 03:15:00
10:35 PM,61.7,61.7,100,30.05,10.0,Calm,Calm,-,N/A,,Clear,0,2013-10-10 03:35:00
10:55 PM,61.3,61.3,100,30.05,10.0,Calm,Calm,-,N/A,,Clear,0,2013-10-10 03:55:00
11:15 PM,61.0,61.0,100,30.05,10.0,Calm,Calm,-,N/A,,Clear,0,2013-10-10 04:15:00
11:55 PM,60.8,60.8,100,30.05,10.0,Calm,Calm,-,N/A,,Clear,0,2013-10-10 04:55:00